Flag for Norway Weather past 2 weeks in Longyearbyen, Svalbard, Norway

Now
43 °F

Partly sunny.


Feels Like: 43 °F
Forecast: 38 / 46 °F
Wind: 2 mph from North

Location: Svalbard Lufthavn

Current Time: Jul 28, 2014 at 1:55:56 PM

Latest Report: Jul 28, 2014 at 12:50 PM


Visibility: N/A

Pressure: 29.89 "Hg

Humidity: 81%

Dew point: 37 °F

Location of LongyearbyenLocation

Historic Weather in Longyearbyen — Graph

°F

Longyearbyen temperature yesterday

Maximum temperature yesterday: 48 °F (at 2:50 PM)
Minimum temperature yesterday: 41 °F (at 4:50 AM)
Average temperature yesterday: 43 °F

Past Weeks' High & Low Weather Summary

 TemperatureHumidityPressure
High52 °F (Jul 15, 6:50 PM)100% (Jul 18, 5:50 PM)30.21 "Hg (Jul 18, 5:50 PM)
Low39 °F (Jul 25, 3:50 AM)58% (Jul 15, 6:50 PM)29.65 "Hg (Jul 24, 12:50 PM)
Average46 °F82%29.97 "Hg
* Reported Jul 13 12:20 PM — Jul 28 11:50 AM, Longyearbyen, Weather by CustomWeather, © 2014

Note: Actual official high and low records may vary slightly from our data, if they occured in-between our weather recording intervals... More about our weather records

Advertising

Longyearbyen weather history for previous 24 hours

 ConditionsComfort  
Time TempWeatherWind HumidityBarometerVisibility
11:50 AM
Jul 28
43 °FBroken clouds.1 mph87%29.89 "HgN/A
10:50 AM43 °FLight rain. Broken clouds.1 mph81%29.89 "HgN/A
9:50 AM43 °FLight rain. Broken clouds.1 mph87%29.89 "HgN/A
8:50 AM43 °FLight rain. Broken clouds.3 mph87%29.86 "HgN/A
7:50 AM43 °FDrizzle. Broken clouds.5 mph93%29.86 "HgN/A
6:50 AM43 °FScattered showers. Broken clouds.5 mph93%29.86 "HgN/A
5:50 AM43 °FDrizzle. Broken clouds.5 mph87%29.86 "HgN/A
4:50 AM43 °FBroken clouds.3 mph87%29.86 "HgN/A
3:50 AM43 °FBroken clouds.5 mph87%29.86 "HgN/A
2:50 AM43 °FBroken clouds.7 mph87%29.86 "HgN/A
1:50 AM43 °FScattered showers. Broken clouds.8 mph81%29.86 "HgN/A
12:50 AM43 °FBroken clouds.8 mph87%29.89 "HgN/A
11:50 PM
Jul 27
43 °FBroken clouds.9 mph87%29.89 "HgN/A
10:50 PM45 °FDrizzle. Broken clouds.12 mph81%29.89 "HgN/A
9:50 PM45 °FDrizzle. Broken clouds.12 mph81%29.89 "HgN/A
8:50 PM45 °FBroken clouds.14 mph76%29.86 "HgN/A
7:50 PM45 °FBroken clouds.14 mph81%29.89 "HgN/A
6:50 PM46 °FBroken clouds.12 mph76%29.86 "HgN/A
5:50 PM46 °FBroken clouds.10 mph76%29.89 "HgN/A
4:50 PM48 °FScattered clouds.13 mph66%29.89 "HgN/A
3:50 PM45 °FBroken clouds.12 mph76%29.89 "HgN/A
2:50 PM48 °FBroken clouds.14 mph66%29.89 "HgN/A
1:50 PM45 °FScattered showers. Broken clouds.13 mph81%29.89 "HgN/A
Weather by CustomWeather, © 2014

See weather overviewHow to use our weather pages